Time,TemperatureF,DewpointF,PressureIn,WindDirection,WindDirectionDegrees,WindSpeedMPH,WindSpeedGustMPH,Humidity,HourlyPrecipIn,Conditions,Clouds,dailyrainin,SoftwareType,DateUTC
2013-04-19 00:01:00,52.9,48.5,30.01,South,174,11.8,26.0,85,0.00,,,0.00,WUHU216DAVISVP2,2013-04-19 04:01:00,
2013-04-19 00:06:00,52.9,48.5,30.01,SSW,197,16.0,24.0,85,0.00,,,0.00,WUHU216DAVISVP2,2013-04-19 04:06:00,
2013-04-19 00:11:00,52.8,48.4,30.00,SW,222,15.0,24.0,85,0.00,,,0.00,WUHU216DAVISVP2,2013-04-19 04:11:00,
2013-04-19 00:16:00,52.8,48.4,30.00,SSE,168,10.1,25.0,85,0.00,,,0.00,WUHU216DAVISVP2,2013-04-19 04:16:00,
2013-04-19 00:21:00,52.8,48.7,30.01,SSE,160,7.5,25.0,86,0.00,,,0.00,WUHU216DAVISVP2,2013-04-19 04:21:00,
2013-04-19 00:26:00,52.8,48.7,30.01,SSE,167,6.8,25.0,86,0.00,,,0.00,WUHU216DAVISVP2,2013-04-19 04:26:00,
2013-04-19 00:31:00,52.8,48.7,30.01,SSE,156,6.5,23.0,86,0.00,,,0.00,WUHU216DAVISVP2,2013-04-19 04:31:00,
2013-04-19 00:36:00,52.8,48.7,30.02,East,88,6.0,18.0,86,0.00,,,0.00,WUHU216DAVISVP2,2013-04-19 04:36:00,
2013-04-19 00:41:00,52.8,49.0,30.01,South,188,5.1,16.0,87,0.00,,,0.00,WUHU216DAVISVP2,2013-04-19 04:41:00,
2013-04-19 00:46:00,52.8,49.0,30.02,SSW,194,15.0,15.0,87,0.00,,,0.00,WUHU216DAVISVP2,2013-04-19 04:46:00,
2013-04-19 00:51:00,52.8,49.0,30.01,SSW,210,10.0,18.0,87,0.00,,,0.00,WUHU216DAVISVP2,2013-04-19 04:51:00,
2013-04-19 00:56:00,52.8,49.0,30.01,SSE,166,8.0,18.0,87,0.00,,,0.00,WUHU216DAVISVP2,2013-04-19 04:56:00,
2013-04-19 01:01:00,52.9,49.4,30.02,South,174,10.0,18.0,88,0.00,,,0.00,WUHU216DAVISVP2,2013-04-19 05:01:00,
2013-04-19 01:06:00,52.9,49.4,30.01,South,173,7.4,19.0,88,0.00,,,0.00,WUHU216DAVISVP2,2013-04-19 05:06:00,
2013-04-19 01:11:00,52.9,49.4,30.01,South,177,8.4,19.0,88,0.00,,,0.00,WUHU216DAVISVP2,2013-04-19 05:11:00,
2013-04-19 01:16:00,53.0,49.5,30.01,South,189,13.0,20.0,88,0.00,,,0.00,WUHU216DAVISVP2,2013-04-19 05:16:00,
2013-04-19 01:21:00,53.0,49.5,30.01,SSE,154,7.0,21.0,88,0.00,,,0.00,WUHU216DAVISVP2,2013-04-19 05:21:00,
2013-04-19 01:26:00,53.1,49.9,30.01,South,174,8.0,21.0,89,0.00,,,0.00,WUHU216DAVISVP2,2013-04-19 05:26:00,
2013-04-19 01:31:00,53.2,50.0,30.01,South,185,9.3,21.0,89,0.00,,,0.00,WUHU216DAVISVP2,2013-04-19 05:31:00,
2013-04-19 01:36:00,53.2,50.0,30.00,South,179,12.0,20.0,89,0.00,,,0.00,WUHU216DAVISVP2,2013-04-19 05:36:00,
2013-04-19 01:41:00,53.2,50.0,30.00,SSE,167,6.1,20.0,89,0.00,,,0.00,WUHU216DAVISVP2,2013-04-19 05:41:00,
2013-04-19 01:46:00,53.0,49.8,29.99,South,183,6.7,20.0,89,0.00,,,0.00,WUHU216DAVISVP2,2013-04-19 05:46:00,
2013-04-19 01:51:00,53.0,50.1,29.99,South,174,7.9,19.0,90,0.00,,,0.00,WUHU216DAVISVP2,2013-04-19 05:51:00,
2013-04-19 01:56:00,53.0,50.1,29.99,SSE,160,5.9,17.0,90,0.00,,,0.00,WUHU216DAVISVP2,2013-04-19 05:56:00,
2013-04-19 02:01:00,53.0,50.1,29.98,SE,145,10.0,23.0,90,0.00,,,0.00,WUHU216DAVISVP2,2013-04-19 06:01:00,
2013-04-19 02:06:00,53.0,50.1,29.98,South,177,6.7,23.0,90,0.00,,,0.00,WUHU216DAVISVP2,2013-04-19 06:06:00,
2013-04-19 02:11:00,53.1,50.5,29.98,SSW,203,13.0,23.0,91,0.00,,,0.00,WUHU216DAVISVP2,2013-04-19 06:11:00,
2013-04-19 02:16:00,53.1,50.2,29.97,SE,131,11.0,23.0,90,0.00,,,0.00,WUHU216DAVISVP2,2013-04-19 06:16:00,
2013-04-19 02:21:00,53.0,50.1,29.97,South,169,15.0,21.0,90,0.00,,,0.00,WUHU216DAVISVP2,2013-04-19 06:21:00,
2013-04-19 02:26:00,53.0,50.4,29.97,South,178,12.2,22.0,91,0.00,,,0.00,WUHU216DAVISVP2,2013-04-19 06:26:00,
2013-04-19 02:31:00,53.0,50.4,29.97,South,177,11.2,22.0,91,0.00,,,0.00,WUHU216DAVISVP2,2013-04-19 06:31:00,
2013-04-19 02:36:00,53.2,50.6,29.97,South,180,10.2,26.0,91,0.00,,,0.00,WUHU216DAVISVP2,2013-04-19 06:36:00,
2013-04-19 02:41:00,53.1,50.5,29.96,SE,143,13.0,26.0,91,0.00,,,0.00,WUHU216DAVISVP2,2013-04-19 06:41:00,
2013-04-19 02:46:00,53.3,51.0,29.95,SSE,158,14.0,26.0,92,0.00,,,0.00,WUHU216DAVISVP2,2013-04-19 06:46:00,
2013-04-19 02:51:00,53.5,51.2,29.95,South,186,8.2,26.0,92,0.00,,,0.00,WUHU216DAVISVP2,2013-04-19 06:51:00,
2013-04-19 02:56:00,53.6,51.3,29.94,SSW,192,10.4,20.0,92,0.00,,,0.00,WUHU216DAVISVP2,2013-04-19 06:56:00,
2013-04-19 03:01:00,53.7,51.4,29.95,South,183,9.2,21.0,92,0.00,,,0.00,WUHU216DAVISVP2,2013-04-19 07:01:00,
2013-04-19 03:06:00,53.7,51.4,29.94,SSW,210,5.6,21.0,92,0.00,,,0.00,WUHU216DAVISVP2,2013-04-19 07:06:00,
2013-04-19 03:11:00,53.7,51.4,29.94,SSW,210,8.0,21.0,92,0.00,,,0.00,WUHU216DAVISVP2,2013-04-19 07:11:00,
2013-04-19 03:16:00,53.7,51.4,29.93,South,183,7.8,21.0,92,0.00,,,0.00,WUHU216DAVISVP2,2013-04-19 07:16:00,
2013-04-19 03:21:00,53.8,51.5,29.93,South,175,10.6,23.0,92,0.00,,,0.00,WUHU216DAVISVP2,2013-04-19 07:21:00,
2013-04-19 03:26:00,53.9,51.6,29.93,SSE,162,10.9,23.0,92,0.00,,,0.00,WUHU216DAVISVP2,2013-04-19 07:26:00,
2013-04-19 03:31:00,53.9,51.6,29.92,SE,145,11.0,23.0,92,0.00,,,0.00,WUHU216DAVISVP2,2013-04-19 07:31:00,
2013-04-19 03:36:00,54.0,51.7,29.92,South,184,7.2,23.0,92,0.00,,,0.00,WUHU216DAVISVP2,2013-04-19 07:36:00,
2013-04-19 03:41:00,54.2,52.2,29.91,South,175,10.6,23.0,93,0.00,,,0.00,WUHU216DAVISVP2,2013-04-19 07:41:00,
2013-04-19 03:46:00,54.3,52.3,29.90,South,183,15.0,23.0,93,0.00,,,0.00,WUHU216DAVISVP2,2013-04-19 07:46:00,
2013-04-19 03:51:00,54.6,52.6,29.91,South,183,6.6,23.0,93,0.00,,,0.00,WUHU216DAVISVP2,2013-04-19 07:51:00,
2013-04-19 03:56:00,54.7,52.7,29.90,SSW,196,7.8,23.0,93,0.00,,,0.00,WUHU216DAVISVP2,2013-04-19 07:56:00,
2013-04-19 04:01:00,54.9,52.9,29.90,South,173,11.2,23.0,93,0.00,,,0.00,WUHU216DAVISVP2,2013-04-19 08:01:00,
2013-04-19 04:06:00,55.0,53.0,29.90,SSE,160,13.0,23.0,93,0.00,,,0.00,WUHU216DAVISVP2,2013-04-19 08:06:00,
2013-04-19 04:11:00,55.1,53.1,29.91,SSE,162,8.6,21.0,93,0.00,,,0.00,WUHU216DAVISVP2,2013-04-19 08:11:00,
2013-04-19 04:16:00,55.2,52.9,29.92,South,189,3.9,21.0,92,0.00,,,0.00,WUHU216DAVISVP2,2013-04-19 08:16:00,
2013-04-19 04:21:00,55.3,53.0,29.92,SSW,205,5.8,21.0,92,0.00,,,0.00,WUHU216DAVISVP2,2013-04-19 08:21:00,
2013-04-19 04:26:00,55.3,53.0,29.93,South,186,6.0,17.0,92,0.00,,,0.00,WUHU216DAVISVP2,2013-04-19 08:26:00,
2013-04-19 04:31:00,55.3,53.0,29.93,SE,130,10.0,17.0,92,0.00,,,0.00,WUHU216DAVISVP2,2013-04-19 08:31:00,
2013-04-19 04:36:00,55.3,53.0,29.93,SSW,204,9.0,15.0,92,0.00,,,0.00,WUHU216DAVISVP2,2013-04-19 08:36:00,
2013-04-19 04:41:00,55.3,53.0,29.93,South,181,8.0,14.0,92,0.00,,,0.00,WUHU216DAVISVP2,2013-04-19 08:41:00,
2013-04-19 04:46:00,55.4,53.4,29.93,WSW,241,10.0,18.0,93,0.00,,,0.00,WUHU216DAVISVP2,2013-04-19 08:46:00,
2013-04-19 04:51:00,55.5,53.5,29.94,South,174,7.3,18.0,93,0.00,,,0.00,WUHU216DAVISVP2,2013-04-19 08:51:00,
2013-04-19 04:56:00,55.5,53.5,29.93,South,172,11.0,18.0,93,0.00,,,0.00,WUHU216DAVISVP2,2013-04-19 08:56:00,
2013-04-19 05:01:00,55.7,53.7,29.93,SSE,168,8.4,17.0,93,0.00,,,0.00,WUHU216DAVISVP2,2013-04-19 09:01:00,
2013-04-19 05:06:00,55.8,53.8,29.92,South,183,6.0,17.0,93,0.00,,,0.00,WUHU216DAVISVP2,2013-04-19 09:06:00,
2013-04-19 05:11:00,55.9,53.9,29.92,South,175,10.0,17.0,93,0.00,,,0.00,WUHU216DAVISVP2,2013-04-19 09:11:00,
2013-04-19 05:16:00,56.1,54.1,29.92,South,177,7.4,17.0,93,0.00,,,0.00,WUHU216DAVISVP2,2013-04-19 09:16:00,
2013-04-19 05:21:00,56.2,54.2,29.92,SE,131,9.0,17.0,93,0.00,,,0.00,WUHU216DAVISVP2,2013-04-19 09:21:00,
2013-04-19 05:26:00,56.2,54.2,29.91,South,186,4.8,17.0,93,0.00,,,0.00,WUHU216DAVISVP2,2013-04-19 09:26:00,
2013-04-19 05:31:00,56.3,54.3,29.91,SW,222,8.0,16.0,93,0.00,,,0.00,WUHU216DAVISVP2,2013-04-19 09:31:00,
2013-04-19 05:36:00,56.5,54.5,29.91,South,182,4.5,18.0,93,0.00,,,0.00,WUHU216DAVISVP2,2013-04-19 09:36:00,
2013-04-19 05:41:00,56.6,54.6,29.91,ESE,120,9.0,18.0,93,0.00,,,0.00,WUHU216DAVISVP2,2013-04-19 09:41:00,
2013-04-19 05:46:00,56.7,54.7,29.90,SSE,165,6.1,17.0,93,0.00,,,0.00,WUHU216DAVISVP2,2013-04-19 09:46:00,
2013-04-19 05:51:00,56.9,54.9,29.90,South,180,4.9,17.0,93,0.00,,,0.00,WUHU216DAVISVP2,2013-04-19 09:51:00,
2013-04-19 05:56:00,57.2,55.2,29.90,SSE,167,10.0,14.0,93,0.00,,,0.00,WUHU216DAVISVP2,2013-04-19 09:56:00,
2013-04-19 06:01:00,57.4,55.1,29.90,SSW,208,6.0,21.0,92,0.00,,,0.00,WUHU216DAVISVP2,2013-04-19 10:01:00,
2013-04-19 06:06:00,57.5,55.2,29.90,South,176,7.3,21.0,92,0.00,,,0.00,WUHU216DAVISVP2,2013-04-19 10:06:00,
2013-04-19 06:11:00,57.5,55.2,29.90,SE,134,4.0,21.0,92,0.00,,,0.00,WUHU216DAVISVP2,2013-04-19 10:11:00,
2013-04-19 06:16:00,57.6,55.3,29.90,SSE,163,3.6,15.0,92,0.00,,,0.00,WUHU216DAVISVP2,2013-04-19 10:16:00,
2013-04-19 06:21:00,57.6,55.3,29.90,South,187,11.0,15.0,92,0.00,,,0.00,WUHU216DAVISVP2,2013-04-19 10:21:00,
2013-04-19 06:26:00,57.7,55.4,29.90,SSE,168,5.8,15.0,92,0.00,,,0.00,WUHU216DAVISVP2,2013-04-19 10:26:00,
2013-04-19 06:31:00,57.7,55.4,29.90,SSE,163,5.0,16.0,92,0.00,,,0.00,WUHU216DAVISVP2,2013-04-19 10:31:00,
2013-04-19 06:36:00,57.7,55.7,29.89,SSE,165,9.0,16.0,93,0.00,,,0.00,WUHU216DAVISVP2,2013-04-19 10:36:00,
2013-04-19 06:41:00,57.7,55.7,29.89,South,170,4.9,16.0,93,0.00,,,0.00,WUHU216DAVISVP2,2013-04-19 10:41:00,
2013-04-19 06:46:00,57.8,55.7,29.89,South,190,5.3,16.0,93,0.00,,,0.00,WUHU216DAVISVP2,2013-04-19 10:46:00,
2013-04-19 06:51:00,57.9,55.8,29.89,South,180,7.4,16.0,93,0.00,,,0.00,WUHU216DAVISVP2,2013-04-19 10:51:00,
2013-04-19 06:56:00,58.0,55.9,29.90,SSW,195,4.3,15.0,93,0.00,,,0.00,WUHU216DAVISVP2,2013-04-19 10:56:00,
2013-04-19 07:01:00,58.1,56.0,29.90,SSW,197,8.0,15.0,93,0.00,,,0.00,WUHU216DAVISVP2,2013-04-19 11:01:00,
2013-04-19 07:06:00,58.2,56.1,29.90,South,187,6.7,18.0,93,0.00,,,0.00,WUHU216DAVISVP2,2013-04-19 11:06:00,
2013-04-19 07:11:00,58.2,56.1,29.90,South,186,5.8,18.0,93,0.00,,,0.00,WUHU216DAVISVP2,2013-04-19 11:11:00,
2013-04-19 07:16:00,58.2,56.1,29.90,South,182,6.8,18.0,93,0.00,,,0.00,WUHU216DAVISVP2,2013-04-19 11:16:00,
2013-04-19 07:21:00,58.3,56.2,29.91,South,181,5.7,18.0,93,0.00,,,0.00,WUHU216DAVISVP2,2013-04-19 11:21:00,
2013-04-19 07:26:00,58.3,56.5,29.91,WSW,240,5.0,13.0,94,0.00,,,0.00,WUHU216DAVISVP2,2013-04-19 11:26:00,
2013-04-19 07:31:00,58.4,56.6,29.91,South,180,2.2,13.0,94,0.00,,,0.00,WUHU216DAVISVP2,2013-04-19 11:31:00,
2013-04-19 07:36:00,58.4,56.6,29.91,SSE,153,5.0,14.0,94,0.00,,,0.00,WUHU216DAVISVP2,2013-04-19 11:36:00,
2013-04-19 07:41:00,58.5,56.7,29.91,SSE,153,9.0,17.0,94,0.00,,,0.00,WUHU216DAVISVP2,2013-04-19 11:41:00,
2013-04-19 07:46:00,58.6,56.8,29.90,SE,129,7.0,17.0,94,0.00,,,0.00,WUHU216DAVISVP2,2013-04-19 11:46:00,
2013-04-19 07:51:00,58.9,56.8,29.89,South,180,7.7,17.0,93,0.00,,,0.00,WUHU216DAVISVP2,2013-04-19 11:51:00,
2013-04-19 07:56:00,59.1,57.0,29.89,South,173,13.0,17.0,93,0.00,,,0.00,WUHU216DAVISVP2,2013-04-19 11:56:00,
2013-04-19 08:01:00,59.2,57.1,29.89,South,177,14.0,17.0,93,0.00,,,0.00,WUHU216DAVISVP2,2013-04-19 12:01:00,
2013-04-19 08:06:00,59.3,57.2,29.89,SE,143,8.0,18.0,93,0.00,,,0.00,WUHU216DAVISVP2,2013-04-19 12:06:00,
2013-04-19 08:11:00,59.5,57.1,29.89,South,182,5.8,18.0,92,0.00,,,0.00,WUHU216DAVISVP2,2013-04-19 12:11:00,
2013-04-19 08:16:00,59.6,57.2,29.89,South,174,4.7,18.0,92,0.00,,,0.00,WUHU216DAVISVP2,2013-04-19 12:16:00,
2013-04-19 08:21:00,59.7,57.3,29.88,SSW,192,7.1,16.0,92,0.00,,,0.00,WUHU216DAVISVP2,2013-04-19 12:21:00,
2013-04-19 08:26:00,59.8,57.4,29.89,SSW,204,5.0,16.0,92,0.00,,,0.00,WUHU216DAVISVP2,2013-04-19 12:26:00,
2013-04-19 08:31:00,59.9,57.5,29.88,South,176,7.5,16.0,92,0.00,,,0.00,WUHU216DAVISVP2,2013-04-19 12:31:00,
2013-04-19 08:36:00,60.1,57.4,29.88,South,176,7.0,16.0,91,0.00,,,0.00,WUHU216DAVISVP2,2013-04-19 12:36:00,
2013-04-19 08:41:00,60.2,57.5,29.88,SSE,160,6.0,14.0,91,0.00,,,0.00,WUHU216DAVISVP2,2013-04-19 12:41:00,
2013-04-19 08:46:00,60.4,57.4,29.88,South,184,8.7,19.0,90,0.00,,,0.00,WUHU216DAVISVP2,2013-04-19 12:46:00,
2013-04-19 08:51:00,60.6,57.7,29.87,South,184,3.8,19.0,90,0.00,,,0.00,WUHU216DAVISVP2,2013-04-19 12:51:00,
2013-04-19 08:56:00,60.9,57.9,29.87,South,170,8.0,19.0,90,0.00,,,0.00,WUHU216DAVISVP2,2013-04-19 12:56:00,
2013-04-19 09:01:00,61.4,58.1,29.87,SE,134,6.0,19.0,89,0.00,,,0.00,WUHU216DAVISVP2,2013-04-19 13:01:00,
2013-04-19 09:06:00,61.6,58.0,29.87,SSE,155,8.1,17.0,88,0.00,,,0.00,WUHU216DAVISVP2,2013-04-19 13:06:00,
2013-04-19 09:11:00,61.9,58.0,29.87,SSE,157,6.1,17.0,87,0.00,,,0.00,WUHU216DAVISVP2,2013-04-19 13:11:00,
2013-04-19 09:16:00,62.0,58.1,29.87,South,186,5.6,16.0,87,0.00,,,0.00,WUHU216DAVISVP2,2013-04-19 13:16:00,
2013-04-19 09:21:00,62.0,58.1,29.86,South,187,6.1,16.0,87,0.00,,,0.00,WUHU216DAVISVP2,2013-04-19 13:21:00,
2013-04-19 09:26:00,62.0,58.1,29.86,SSW,211,13.0,15.0,87,0.00,,,0.00,WUHU216DAVISVP2,2013-04-19 13:26:00,
2013-04-19 09:31:00,62.1,58.2,29.86,SW,214,11.0,16.0,87,0.00,,,0.00,WUHU216DAVISVP2,2013-04-19 13:31:00,
2013-04-19 09:36:00,62.5,58.3,29.85,SSE,149,8.0,18.0,86,0.00,,,0.00,WUHU216DAVISVP2,2013-04-19 13:36:00,
2013-04-19 09:41:00,62.8,58.6,29.85,SE,143,6.1,18.0,86,0.00,,,0.00,WUHU216DAVISVP2,2013-04-19 13:41:00,
2013-04-19 09:46:00,62.9,58.3,29.85,SSE,165,8.7,18.0,85,0.00,,,0.00,WUHU216DAVISVP2,2013-04-19 13:46:00,
2013-04-19 09:51:00,63.0,58.4,29.85,SSE,148,9.2,20.0,85,0.00,,,0.00,WUHU216DAVISVP2,2013-04-19 13:51:00,
2013-04-19 09:56:00,63.4,58.8,29.85,SE,129,9.0,23.0,85,0.00,,,0.00,WUHU216DAVISVP2,2013-04-19 13:56:00,
2013-04-19 10:01:00,63.7,59.1,29.84,SSE,150,6.6,23.0,85,0.00,,,0.00,WUHU216DAVISVP2,2013-04-19 14:01:00,
2013-04-19 10:06:00,64.2,59.0,29.83,South,179,18.0,22.0,83,0.00,,,0.00,WUHU216DAVISVP2,2013-04-19 14:06:00,
2013-04-19 10:11:00,65.0,59.4,29.83,SSE,157,8.7,24.0,82,0.00,,,0.00,WUHU216DAVISVP2,2013-04-19 14:11:00,
2013-04-19 10:16:00,65.4,59.5,29.83,SE,143,10.9,24.0,81,0.00,,,0.00,WUHU216DAVISVP2,2013-04-19 14:16:00,
2013-04-19 10:21:00,65.5,59.6,29.83,South,174,16.0,24.0,81,0.00,,,0.00,WUHU216DAVISVP2,2013-04-19 14:21:00,
2013-04-19 10:26:00,65.3,59.4,29.83,East,93,10.0,24.0,81,0.00,,,0.00,WUHU216DAVISVP2,2013-04-19 14:26:00,
2013-04-19 10:31:00,65.1,59.2,29.83,South,182,7.3,24.0,81,0.00,,,0.00,WUHU216DAVISVP2,2013-04-19 14:31:00,
2013-04-19 10:36:00,64.9,58.9,29.83,South,181,8.0,23.0,81,0.00,,,0.00,WUHU216DAVISVP2,2013-04-19 14:36:00,
2013-04-19 10:41:00,65.2,59.2,29.82,SSE,153,10.0,22.0,81,0.00,,,0.00,WUHU216DAVISVP2,2013-04-19 14:41:00,
2013-04-19 10:46:00,65.4,59.1,29.83,South,191,12.1,21.0,80,0.00,,,0.00,WUHU216DAVISVP2,2013-04-19 14:46:00,
2013-04-19 10:51:00,65.5,59.5,29.82,SW,228,9.0,21.0,81,0.00,,,0.00,WUHU216DAVISVP2,2013-04-19 14:51:00,
2013-04-19 10:56:00,65.4,59.1,29.82,ESE,111,11.0,21.0,80,0.00,,,0.00,WUHU216DAVISVP2,2013-04-19 14:56:00,
2013-04-19 11:01:00,65.4,59.5,29.82,SSE,165,7.9,21.0,81,0.00,,,0.00,WUHU216DAVISVP2,2013-04-19 15:01:00,
2013-04-19 11:06:00,65.4,59.1,29.81,SSE,149,10.0,20.0,80,0.00,,,0.00,WUHU216DAVISVP2,2013-04-19 15:06:00,
2013-04-19 11:11:00,66.2,59.9,29.81,SSE,150,7.0,20.0,80,0.00,,,0.00,WUHU216DAVISVP2,2013-04-19 15:11:00,
2013-04-19 11:16:00,66.7,59.7,29.81,SSE,149,10.0,17.0,78,0.00,,,0.00,WUHU216DAVISVP2,2013-04-19 15:16:00,
2013-04-19 11:21:00,66.6,59.6,29.80,SSE,152,8.0,17.0,78,0.00,,,0.00,WUHU216DAVISVP2,2013-04-19 15:21:00,
2013-04-19 11:26:00,67.2,60.2,29.80,SSE,159,13.0,20.0,78,0.00,,,0.00,WUHU216DAVISVP2,2013-04-19 15:26:00,
2013-04-19 11:31:00,67.4,60.0,29.80,SSW,201,7.0,21.0,77,0.00,,,0.00,WUHU216DAVISVP2,2013-04-19 15:31:00,
2013-04-19 11:36:00,67.5,59.8,29.80,South,186,17.0,21.0,76,0.00,,,0.00,WUHU216DAVISVP2,2013-04-19 15:36:00,
2013-04-19 11:41:00,67.5,60.1,29.79,SSE,147,6.2,24.0,77,0.00,,,0.00,WUHU216DAVISVP2,2013-04-19 15:41:00,
2013-04-19 11:46:00,67.2,59.9,29.79,SSE,149,10.0,24.0,77,0.00,,,0.00,WUHU216DAVISVP2,2013-04-19 15:46:00,
2013-04-19 11:51:00,67.2,59.9,29.79,South,174,6.4,24.0,77,0.00,,,0.00,WUHU216DAVISVP2,2013-04-19 15:51:00,
2013-04-19 11:56:00,67.6,60.2,29.78,East,96,10.0,22.0,77,0.00,,,0.00,WUHU216DAVISVP2,2013-04-19 15:56:00,
2013-04-19 12:01:00,67.5,60.0,29.77,SSE,160,10.0,23.0,77,0.00,,,0.00,WUHU216DAVISVP2,2013-04-19 16:01:00,
2013-04-19 12:06:00,67.5,60.0,29.77,South,179,7.8,23.0,77,0.00,,,0.00,WUHU216DAVISVP2,2013-04-19 16:06:00,
2013-04-19 12:11:00,67.5,60.0,29.77,SSE,148,10.8,23.0,77,0.00,,,0.00,WUHU216DAVISVP2,2013-04-19 16:11:00,
2013-04-19 12:16:00,67.4,60.3,29.77,South,176,10.0,23.0,78,0.00,,,0.00,WUHU216DAVISVP2,2013-04-19 16:16:00,
2013-04-19 12:21:00,67.2,60.1,29.76,South,170,5.8,18.0,78,0.00,,,0.00,WUHU216DAVISVP2,2013-04-19 16:21:00,
2013-04-19 12:26:00,66.8,60.1,29.76,SE,136,11.0,18.0,79,0.00,,,0.00,WUHU216DAVISVP2,2013-04-19 16:26:00,
2013-04-19 12:31:00,66.5,60.1,29.76,South,178,6.1,18.0,80,0.00,,,0.00,WUHU216DAVISVP2,2013-04-19 16:31:00,
2013-04-19 12:36:00,66.1,60.1,29.76,SE,132,7.6,18.0,81,0.00,,,0.00,WUHU216DAVISVP2,2013-04-19 16:36:00,
2013-04-19 12:41:00,65.7,60.4,29.76,South,173,4.6,18.0,83,0.00,,,0.00,WUHU216DAVISVP2,2013-04-19 16:41:00,
2013-04-19 12:46:00,65.4,60.1,29.76,SSE,166,10.0,17.0,83,0.00,,,0.00,WUHU216DAVISVP2,2013-04-19 16:46:00,
2013-04-19 12:51:00,65.2,60.2,29.76,SSE,154,6.5,17.0,84,0.00,,,0.00,WUHU216DAVISVP2,2013-04-19 16:51:00,
2013-04-19 12:56:00,65.1,60.5,29.75,SSE,147,5.7,17.0,85,0.00,,,0.00,WUHU216DAVISVP2,2013-04-19 16:56:00,
2013-04-19 13:01:00,65.4,61.1,29.75,SSE,165,7.0,17.0,86,0.00,,,0.00,WUHU216DAVISVP2,2013-04-19 17:01:00,
2013-04-19 13:06:00,65.6,61.0,29.75,South,177,8.0,12.0,85,0.00,,,0.00,WUHU216DAVISVP2,2013-04-19 17:06:00,
2013-04-19 13:11:00,66.2,61.6,29.74,ESE,114,7.0,15.0,85,0.00,,,0.00,WUHU216DAVISVP2,2013-04-19 17:11:00,
2013-04-19 13:16:00,66.7,61.4,29.74,SE,145,7.4,16.0,83,0.00,,,0.00,WUHU216DAVISVP2,2013-04-19 17:16:00,
2013-04-19 13:21:00,67.4,61.8,29.73,SSE,147,5.5,16.0,82,0.00,,,0.00,WUHU216DAVISVP2,2013-04-19 17:21:00,
2013-04-19 13:26:00,68.1,62.1,29.73,ESE,108,12.0,15.0,81,0.00,,,0.00,WUHU216DAVISVP2,2013-04-19 17:26:00,
2013-04-19 13:31:00,68.6,62.3,29.72,East,86,7.0,15.0,80,0.00,,,0.00,WUHU216DAVISVP2,2013-04-19 17:31:00,
2013-04-19 13:36:00,68.9,61.9,29.72,SE,124,15.0,17.0,78,0.00,,,0.00,WUHU216DAVISVP2,2013-04-19 17:36:00,
2013-04-19 13:41:00,68.9,62.2,29.72,SE,142,11.0,17.0,79,0.00,,,0.00,WUHU216DAVISVP2,2013-04-19 17:41:00,
2013-04-19 13:46:00,69.4,62.0,29.72,SSW,200,14.0,19.0,77,0.00,,,0.00,WUHU216DAVISVP2,2013-04-19 17:46:00,
2013-04-19 13:51:00,70.0,62.2,29.72,SSE,155,7.8,19.0,76,0.00,,,0.00,WUHU216DAVISVP2,2013-04-19 17:51:00,
2013-04-19 13:56:00,70.3,62.1,29.72,SSE,147,5.5,19.0,75,0.00,,,0.00,WUHU216DAVISVP2,2013-04-19 17:56:00,
2013-04-19 14:01:00,70.2,61.7,29.73,South,187,14.0,20.0,74,0.00,,,0.00,WUHU216DAVISVP2,2013-04-19 18:01:00,
2013-04-19 14:06:00,69.9,61.4,29.73,SW,221,11.0,21.0,74,0.00,,,0.00,WUHU216DAVISVP2,2013-04-19 18:06:00,
2013-04-19 14:11:00,69.8,61.3,29.73,SSE,150,8.0,22.0,74,0.00,,,0.00,WUHU216DAVISVP2,2013-04-19 18:11:00,
2013-04-19 14:16:00,69.6,61.5,29.72,South,177,9.4,22.0,75,0.00,,,0.00,WUHU216DAVISVP2,2013-04-19 18:16:00,
2013-04-19 14:21:00,69.4,61.3,29.72,SE,141,11.1,22.0,75,0.00,,,0.00,WUHU216DAVISVP2,2013-04-19 18:21:00,
2013-04-19 14:26:00,69.3,61.0,29.72,South,177,9.0,22.0,75,0.00,,,0.00,WUHU216DAVISVP2,2013-04-19 18:26:00,
2013-04-19 14:31:00,69.3,61.4,29.72,South,188,7.7,22.0,76,0.00,,,0.00,WUHU216DAVISVP2,2013-04-19 18:31:00,
2013-04-19 14:36:00,69.2,61.3,29.72,SSE,161,8.6,23.0,76,0.00,,,0.00,WUHU216DAVISVP2,2013-04-19 18:36:00,
2013-04-19 14:41:00,69.2,61.3,29.71,South,188,10.0,23.0,76,0.00,,,0.00,WUHU216DAVISVP2,2013-04-19 18:41:00,
2013-04-19 14:46:00,69.3,61.4,29.70,SE,145,14.0,23.0,76,0.00,,,0.00,WUHU216DAVISVP2,2013-04-19 18:46:00,
2013-04-19 14:51:00,69.4,61.5,29.70,SSW,211,12.0,24.0,76,0.00,,,0.00,WUHU216DAVISVP2,2013-04-19 18:51:00,
2013-04-19 14:56:00,69.6,61.7,29.70,East,90,10.0,24.0,76,0.00,,,0.00,WUHU216DAVISVP2,2013-04-19 18:56:00,
2013-04-19 15:01:00,69.7,61.8,29.69,SE,146,13.0,24.0,76,0.00,,,0.00,WUHU216DAVISVP2,2013-04-19 19:01:00,
2013-04-19 15:06:00,69.8,61.5,29.69,South,180,7.0,24.0,75,0.00,,,0.00,WUHU216DAVISVP2,2013-04-19 19:06:00,
2013-04-19 15:11:00,69.9,61.6,29.69,South,178,9.0,21.0,75,0.00,,,0.00,WUHU216DAVISVP2,2013-04-19 19:11:00,
2013-04-19 15:16:00,69.9,61.6,29.68,South,180,11.0,20.0,75,0.00,,,0.00,WUHU216DAVISVP2,2013-04-19 19:16:00,
2013-04-19 15:21:00,69.8,61.9,29.68,SSW,195,11.0,20.0,76,0.00,,,0.00,WUHU216DAVISVP2,2013-04-19 19:21:00,
2013-04-19 15:26:00,69.9,62.0,29.67,South,176,7.0,22.0,76,0.00,,,0.00,WUHU216DAVISVP2,2013-04-19 19:26:00,
2013-04-19 15:31:00,70.1,62.2,29.66,SSE,152,15.0,22.0,76,0.00,,,0.00,WUHU216DAVISVP2,2013-04-19 19:31:00,
2013-04-19 15:36:00,70.3,62.0,29.66,South,185,11.7,22.0,75,0.00,,,0.00,WUHU216DAVISVP2,2013-04-19 19:36:00,
2013-04-19 15:41:00,70.6,62.3,29.65,South,170,7.3,22.0,75,0.00,,,0.00,WUHU216DAVISVP2,2013-04-19 19:41:00,
2013-04-19 15:46:00,70.9,62.6,29.65,South,180,9.5,24.0,75,0.00,,,0.00,WUHU216DAVISVP2,2013-04-19 19:46:00,
2013-04-19 15:52:00,70.9,62.6,29.64,South,181,9.0,24.0,75,0.00,,,0.00,WUHU216DAVISVP2,2013-04-19 19:52:00,
2013-04-19 15:57:00,70.9,62.6,29.64,South,189,11.0,24.0,75,0.00,,,0.00,WUHU216DAVISVP2,2013-04-19 19:57:00,
2013-04-19 16:02:00,70.9,62.6,29.63,South,179,16.0,27.0,75,0.00,,,0.00,WUHU216DAVISVP2,2013-04-19 20:02:00,
2013-04-19 16:07:00,70.8,62.5,29.63,South,177,8.3,27.0,75,0.00,,,0.00,WUHU216DAVISVP2,2013-04-19 20:07:00,
2013-04-19 16:12:00,70.7,62.4,29.63,South,178,9.8,27.0,75,0.00,,,0.00,WUHU216DAVISVP2,2013-04-19 20:12:00,
2013-04-19 16:17:00,70.6,62.3,29.62,South,178,11.3,22.0,75,0.00,,,0.00,WUHU216DAVISVP2,2013-04-19 20:17:00,
2013-04-19 16:22:00,70.5,62.2,29.61,South,179,10.6,22.0,75,0.00,,,0.00,WUHU216DAVISVP2,2013-04-19 20:22:00,
2013-04-19 16:27:00,70.5,62.2,29.60,South,189,9.8,21.0,75,0.00,,,0.00,WUHU216DAVISVP2,2013-04-19 20:27:00,
2013-04-19 16:32:00,70.4,62.6,29.58,South,188,11.0,21.0,76,0.00,,,0.00,WUHU216DAVISVP2,2013-04-19 20:32:00,
2013-04-19 16:37:00,70.4,62.2,29.58,South,172,9.6,20.0,75,0.00,,,0.00,WUHU216DAVISVP2,2013-04-19 20:37:00,
2013-04-19 16:42:00,70.4,62.2,29.57,South,175,7.5,20.0,75,0.00,,,0.00,WUHU216DAVISVP2,2013-04-19 20:42:00,
2013-04-19 16:47:00,70.5,62.6,29.57,SSW,199,12.0,20.0,76,0.00,,,0.00,WUHU216DAVISVP2,2013-04-19 20:47:00,
2013-04-19 16:52:00,70.5,62.2,29.57,SW,218,10.0,20.0,75,0.00,,,0.00,WUHU216DAVISVP2,2013-04-19 20:52:00,
2013-04-19 16:57:00,70.6,62.3,29.55,SSE,156,8.8,17.0,75,0.00,,,0.00,WUHU216DAVISVP2,2013-04-19 20:57:00,
2013-04-19 17:02:00,70.6,62.4,29.55,South,184,7.4,20.0,75,0.00,,,0.00,WUHU216DAVISVP2,2013-04-19 21:02:00,
2013-04-19 17:07:00,70.8,62.6,29.54,SE,138,10.0,20.0,75,0.00,,,0.00,WUHU216DAVISVP2,2013-04-19 21:07:00,
2013-04-19 17:12:00,71.1,62.5,29.55,South,172,9.0,21.0,74,0.00,,,0.00,WUHU216DAVISVP2,2013-04-19 21:12:00,
2013-04-19 17:17:00,71.2,62.6,29.55,SSW,195,6.0,21.0,74,0.00,,,0.00,WUHU216DAVISVP2,2013-04-19 21:17:00,
2013-04-19 17:22:00,71.4,62.5,29.56,SSE,167,18.0,21.0,73,0.00,,,0.00,WUHU216DAVISVP2,2013-04-19 21:22:00,
2013-04-19 17:27:00,71.7,62.4,29.56,South,179,11.5,22.0,72,0.00,,,0.00,WUHU216DAVISVP2,2013-04-19 21:27:00,
2013-04-19 17:32:00,71.9,62.6,29.56,SSW,208,13.0,22.0,72,0.00,,,0.00,WUHU216DAVISVP2,2013-04-19 21:32:00,
2013-04-19 17:37:00,72.1,62.7,29.57,South,187,5.3,22.0,72,0.00,,,0.00,WUHU216DAVISVP2,2013-04-19 21:37:00,
2013-04-19 17:42:00,72.2,62.5,29.57,SSW,204,4.4,22.0,71,0.00,,,0.00,WUHU216DAVISVP2,2013-04-19 21:42:00,
2013-04-19 17:47:00,72.2,62.5,29.58,SSW,192,7.0,20.0,71,0.00,,,0.00,WUHU216DAVISVP2,2013-04-19 21:47:00,
2013-04-19 17:52:00,72.3,62.5,29.58,SSW,197,11.0,19.0,71,0.00,,,0.00,WUHU216DAVISVP2,2013-04-19 21:52:00,
2013-04-19 17:57:00,72.3,62.5,29.57,SSE,156,8.0,19.0,71,0.00,,,0.00,WUHU216DAVISVP2,2013-04-19 21:57:00,
2013-04-19 18:02:00,72.2,62.3,29.57,SSW,197,10.0,14.0,71,0.00,,,0.00,WUHU216DAVISVP2,2013-04-19 22:02:00,
2013-04-19 18:07:00,72.2,62.8,29.58,SSW,206,2.2,14.0,72,0.00,,,0.00,WUHU216DAVISVP2,2013-04-19 22:07:00,
2013-04-19 18:12:00,72.2,62.8,29.57,SSW,193,13.0,15.0,72,0.00,,,0.00,WUHU216DAVISVP2,2013-04-19 22:12:00,
2013-04-19 18:17:00,72.2,62.8,29.58,SSW,193,7.0,17.0,72,0.00,,,0.00,WUHU216DAVISVP2,2013-04-19 22:17:00,
2013-04-19 18:22:00,72.2,62.8,29.58,SSE,159,8.6,17.0,72,0.00,,,0.00,WUHU216DAVISVP2,2013-04-19 22:22:00,
2013-04-19 18:27:00,72.2,62.7,29.59,SE,132,15.0,19.0,72,0.00,,,0.00,WUHU216DAVISVP2,2013-04-19 22:27:00,
2013-04-19 18:32:00,72.1,62.6,29.58,South,169,8.7,20.0,72,0.00,,,0.00,WUHU216DAVISVP2,2013-04-19 22:32:00,
2013-04-19 18:37:00,72.0,62.7,29.58,SSE,153,9.0,20.0,72,0.00,,,0.00,WUHU216DAVISVP2,2013-04-19 22:37:00,
2013-04-19 18:42:00,71.9,62.9,29.57,SSE,164,7.6,20.0,73,0.00,,,0.00,WUHU216DAVISVP2,2013-04-19 22:42:00,
2013-04-19 18:47:00,71.6,62.6,29.57,SSE,149,8.0,19.0,73,0.00,,,0.00,WUHU216DAVISVP2,2013-04-19 22:47:00,
2013-04-19 18:52:00,71.3,62.4,29.57,SSE,150,8.2,19.0,73,0.00,,,0.00,WUHU216DAVISVP2,2013-04-19 22:52:00,
2013-04-19 18:57:00,71.1,62.4,29.57,SSE,166,5.4,17.0,74,0.00,,,0.00,WUHU216DAVISVP2,2013-04-19 22:57:00,
2013-04-19 19:02:00,71.0,62.3,29.57,South,169,11.1,24.0,74,0.00,,,0.00,WUHU216DAVISVP2,2013-04-19 23:02:00,
2013-04-19 19:07:00,70.8,62.1,29.57,South,187,7.0,25.0,74,0.00,,,0.00,WUHU216DAVISVP2,2013-04-19 23:07:00,
2013-04-19 19:12:00,70.6,62.3,29.56,West,281,9.0,25.0,75,0.00,,,0.00,WUHU216DAVISVP2,2013-04-19 23:12:00,
2013-04-19 19:17:00,70.5,62.2,29.56,SSE,163,12.0,25.0,75,0.00,,,0.00,WUHU216DAVISVP2,2013-04-19 23:17:00,
2013-04-19 19:22:00,70.3,62.0,29.56,SW,219,8.0,21.0,75,0.00,,,0.00,WUHU216DAVISVP2,2013-04-19 23:22:00,
2013-04-19 19:27:00,70.3,62.0,29.56,South,176,7.2,19.0,75,0.00,,,0.00,WUHU216DAVISVP2,2013-04-19 23:27:00,
2013-04-19 19:32:00,70.1,62.2,29.56,SSE,155,9.0,19.0,76,0.00,,,0.00,WUHU216DAVISVP2,2013-04-19 23:32:00,
2013-04-19 19:37:00,70.0,62.1,29.55,SSW,205,9.3,19.0,76,0.00,,,0.00,WUHU216DAVISVP2,2013-04-19 23:37:00,
2013-04-19 19:42:00,69.9,62.0,29.55,South,179,6.1,19.0,76,0.00,,,0.00,WUHU216DAVISVP2,2013-04-19 23:42:00,
2013-04-19 19:47:00,69.8,62.4,29.55,SSW,200,13.0,19.0,77,0.00,,,0.00,WUHU216DAVISVP2,2013-04-19 23:47:00,
2013-04-19 19:52:00,69.7,62.3,29.55,SSE,168,7.5,18.0,77,0.00,,,0.00,WUHU216DAVISVP2,2013-04-19 23:52:00,
2013-04-19 19:57:00,69.8,62.0,29.55,SW,224,8.0,19.0,76,0.00,,,0.00,WUHU216DAVISVP2,2013-04-19 23:57:00,
2013-04-19 20:02:00,69.8,62.4,29.55,SSE,158,12.0,19.0,77,0.00,,,0.00,WUHU216DAVISVP2,2013-04-20 00:02:00,
2013-04-19 20:07:00,69.7,62.3,29.55,SW,224,6.0,19.0,77,0.00,,,0.00,WUHU216DAVISVP2,2013-04-20 00:07:00,
2013-04-19 20:12:00,69.6,62.2,29.55,SSE,167,9.1,19.0,77,0.00,,,0.00,WUHU216DAVISVP2,2013-04-20 00:12:00,
2013-04-19 20:17:00,69.5,62.1,29.54,SW,217,11.0,18.0,77,0.00,,,0.00,WUHU216DAVISVP2,2013-04-20 00:17:00,
2013-04-19 20:22:00,69.3,61.9,29.54,SE,146,9.0,18.0,77,0.00,,,0.00,WUHU216DAVISVP2,2013-04-20 00:22:00,
2013-04-19 20:27:00,69.2,61.8,29.54,South,171,8.5,18.0,77,0.00,,,0.00,WUHU216DAVISVP2,2013-04-20 00:27:00,
2013-04-19 20:32:00,69.1,62.1,29.53,SSE,164,8.8,17.0,78,0.00,,,0.00,WUHU216DAVISVP2,2013-04-20 00:32:00,
2013-04-19 20:37:00,68.9,61.9,29.53,SE,141,8.0,17.0,78,0.00,,,0.00,WUHU216DAVISVP2,2013-04-20 00:37:00,
2013-04-19 20:42:00,68.7,61.7,29.52,SE,124,8.0,16.0,78,0.00,,,0.00,WUHU216DAVISVP2,2013-04-20 00:42:00,
2013-04-19 20:47:00,68.6,61.9,29.53,SE,136,11.0,16.0,79,0.00,,,0.00,WUHU216DAVISVP2,2013-04-20 00:47:00,
2013-04-19 20:52:00,68.6,61.9,29.54,South,174,8.1,15.0,79,0.00,,,0.00,WUHU216DAVISVP2,2013-04-20 00:52:00,
2013-04-19 20:57:00,68.4,61.7,29.53,SSW,201,12.0,16.0,79,0.00,,,0.00,WUHU216DAVISVP2,2013-04-20 00:57:00,
2013-04-19 21:02:00,68.4,61.7,29.53,South,175,7.3,16.0,79,0.00,,,0.00,WUHU216DAVISVP2,2013-04-20 01:02:00,
2013-04-19 21:07:00,68.3,61.6,29.54,SSE,160,11.0,18.0,79,0.00,,,0.00,WUHU216DAVISVP2,2013-04-20 01:07:00,
2013-04-19 21:12:00,68.2,61.5,29.54,SE,144,7.0,18.0,79,0.00,,,0.00,WUHU216DAVISVP2,2013-04-20 01:12:00,
2013-04-19 21:17:00,68.1,61.8,29.55,SSW,207,9.0,18.0,80,0.00,,,0.00,WUHU216DAVISVP2,2013-04-20 01:17:00,
2013-04-19 21:22:00,68.2,61.9,29.56,South,183,7.4,18.0,80,0.00,,,0.00,WUHU216DAVISVP2,2013-04-20 01:22:00,
2013-04-19 21:27:00,68.2,61.9,29.58,West,264,3.7,16.0,80,0.00,,,0.00,WUHU216DAVISVP2,2013-04-20 01:27:00,
2013-04-19 21:32:00,68.3,61.6,29.60,NNE,33,18.0,18.0,79,0.00,,,0.00,WUHU216DAVISVP2,2013-04-20 01:32:00,
2013-04-19 21:37:00,62.6,54.3,29.62,NW,319,8.0,23.0,74,0.00,,,0.00,WUHU216DAVISVP2,2013-04-20 01:37:00,
2013-04-19 21:42:00,58.1,52.7,29.63,WNW,300,9.0,23.0,82,0.16,,,0.16,WUHU216DAVISVP2,2013-04-20 01:42:00,
2013-04-19 21:47:00,54.7,51.2,29.65,WNW,291,13.0,24.0,88,0.30,,,0.30,WUHU216DAVISVP2,2013-04-20 01:47:00,
2013-04-19 21:52:00,51.5,48.4,29.66,WNW,284,12.0,27.0,89,0.39,,,0.39,WUHU216DAVISVP2,2013-04-20 01:52:00,
2013-04-19 21:57:00,50.0,47.4,29.65,NW,326,12.6,27.0,91,0.45,,,0.45,WUHU216DAVISVP2,2013-04-20 01:57:00,
2013-04-19 22:02:00,48.8,46.2,29.66,West,263,17.0,27.0,91,0.46,,,0.46,WUHU216DAVISVP2,2013-04-20 02:02:00,
2013-04-19 22:07:00,48.1,45.6,29.67,WNW,300,8.5,27.0,91,0.46,,,0.46,WUHU216DAVISVP2,2013-04-20 02:07:00,
2013-04-19 22:12:00,47.7,45.4,29.67,NNW,331,6.3,23.0,92,0.48,,,0.48,WUHU216DAVISVP2,2013-04-20 02:12:00,
2013-04-19 22:17:00,47.1,44.6,29.68,NW,323,11.5,23.0,91,0.49,,,0.49,WUHU216DAVISVP2,2013-04-20 02:17:00,
2013-04-19 22:22:00,46.5,44.0,29.68,NNE,22,8.0,23.0,91,0.50,,,0.50,WUHU216DAVISVP2,2013-04-20 02:22:00,
2013-04-19 22:27:00,46.1,43.6,29.71,NNW,347,7.0,22.0,91,0.51,,,0.51,WUHU216DAVISVP2,2013-04-20 02:27:00,
2013-04-19 22:32:00,45.9,43.4,29.72,North,6,9.5,22.0,91,0.51,,,0.51,WUHU216DAVISVP2,2013-04-20 02:32:00,
2013-04-19 22:37:00,45.7,43.2,29.73,NNW,345,9.8,20.0,91,0.52,,,0.52,WUHU216DAVISVP2,2013-04-20 02:37:00,
2013-04-19 22:42:00,45.5,43.0,29.73,NNW,328,8.1,20.0,91,0.37,,,0.53,WUHU216DAVISVP2,2013-04-20 02:42:00,
2013-04-19 22:47:00,45.4,43.2,29.74,North,1,9.7,20.0,92,0.26,,,0.56,WUHU216DAVISVP2,2013-04-20 02:47:00,
2013-04-19 22:52:00,45.1,43.2,29.74,NE,39,8.0,20.0,93,0.19,,,0.58,WUHU216DAVISVP2,2013-04-20 02:52:00,
2013-04-19 22:57:00,44.8,42.9,29.73,North,349,7.3,19.0,93,0.15,,,0.60,WUHU216DAVISVP2,2013-04-20 02:57:00,
2013-04-19 23:02:00,44.6,42.9,29.73,NNW,328,6.0,19.0,94,0.15,,,0.61,WUHU216DAVISVP2,2013-04-20 03:02:00,
2013-04-19 23:07:00,44.5,42.9,29.74,NNW,338,7.2,18.0,94,0.17,,,0.63,WUHU216DAVISVP2,2013-04-20 03:07:00,
2013-04-19 23:12:00,44.3,42.6,29.74,NNE,20,16.0,19.0,94,0.16,,,0.64,WUHU216DAVISVP2,2013-04-20 03:12:00,
2013-04-19 23:17:00,44.2,42.5,29.73,NNE,32,7.0,19.0,94,0.16,,,0.65,WUHU216DAVISVP2,2013-04-20 03:17:00,
2013-04-19 23:22:00,44.1,42.4,29.73,North,352,5.7,19.0,94,0.17,,,0.67,WUHU216DAVISVP2,2013-04-20 03:22:00,
2013-04-19 23:27:00,44.0,42.3,29.74,North,5,5.0,18.0,94,0.17,,,0.68,WUHU216DAVISVP2,2013-04-20 03:27:00,
2013-04-19 23:32:00,44.0,42.3,29.73,North,9,6.9,21.0,94,0.18,,,0.69,WUHU216DAVISVP2,2013-04-20 03:32:00,
2013-04-19 23:37:00,44.0,42.4,29.75,NW,315,8.0,21.0,94,0.18,,,0.70,WUHU216DAVISVP2,2013-04-20 03:37:00,
2013-04-19 23:42:00,43.9,42.2,29.74,North,0,7.0,21.0,94,0.17,,,0.70,WUHU216DAVISVP2,2013-04-20 03:42:00,
2013-04-19 23:47:00,43.8,42.1,29.74,North,1,6.3,15.0,94,0.15,,,0.71,WUHU216DAVISVP2,2013-04-20 03:47:00,
2013-04-19 23:52:00,43.7,42.0,29.74,NNE,23,5.3,14.0,94,0.14,,,0.72,WUHU216DAVISVP2,2013-04-20 03:52:00,
2013-04-19 23:57:00,43.6,42.0,29.75,North,0,3.8,14.0,94,0.13,,,0.73,WUHU216DAVISVP2,2013-04-20 03:57:00,